Location: Fornova de Taro
(44.7000°N, 10.1000°E)
Time: 20:11:23
(UTC+00:00)

Cosmos 2369 Rocket - Pass Details

Date: 26 May 2022
Orbit: 830 x 851 km, 71.0° (Epoch: 02 July)

Event Time Altitude Azimuth Distance (km) Brightness Sun altitude
Rises 01:51:19 0° 335° (NNW) 3,384 5.7 -15.3°
Reaches altitude 10° 01:53:46 10° 337° (NNW) 2,446 5.0 -15.1°
Maximum altitude 01:59:23 75° 63° (ENE) 862 2.4 -14.5°
Drops below altitude 10° 02:04:57 10° 149° (SSE) 2,431 4.4 -13.8°
Sets 02:07:23 0° 151° (SSE) 3,363 5.1 -13.5°
